Orbital Elements at Epoch 2459200.5 (2020-Dec-17.0) TDB
Reference: JPL 27 (heliocentric ecliptic J2000)
Element | Value | Uncertainty (1-sigma) | Units |
e | .05131509591086229 | 3.6165e-08 | |
a | 2.639235344471342 | 1.4007e-08 | au |
q | 2.503802729638458 | 1.0115e-07 | au |
i | 14.64280812129082 | 3.9241e-06 | deg |
node | 116.7455138219022 | 1.7334e-05 | deg |
peri | 11.46321657125364 | 5.0442e-05 | deg |
M | 304.2383834230166 | 4.7976e-05 | deg |
tp | 2459443.076351593955 (2021-Aug-16.57635159) | 0.0002087 | TDB |
period | 1566.085991306604 4.29 | 1.2467e-05 3.413e-08 | d yr |
n | .229872434846089 | 1.8299e-09 | deg/d |
Q | 2.774667959304227 | 1.4726e-08 | au |
|
| | Orbit Determination Parameters
Additional Information
|